TIME,DELAY(SENSOR),PRES,OXYGEN,RAWTEMP,T(OPTODE),TCPHASE,FLUOR,BETA(BETA700),BETA(BETA412),BETA(BETA440),CDOM,C(CSC),ED(ED412.40),ED(ED444.00),ED(ED489.70),ED(ED554.30),LU(LU411.80),LU(LU443.40),LU(LU489.60),LU(LU554.10),COMP,TILTX,TILTY,CHECK
1358134608,5809,876.6400146484375000,46.6937789916992200,660.5275878906250000,4.6105999946594240,54.0166206359863300,53,98,82,79,80,15062,2147757467,2147421888,2148011629,2147875209,2147641536,2147060608,2148259648,2147198966,2345,4,14,9244
1358138204,5812,962.2899780273438000,49.6726799011230500,670.5789184570312000,4.2790718078613280,53.7241401672363300,52,100,84,80,81,15060,2147756498,2147421120,2148011620,2147876736,2147642806,2147054299,2148258084,2147197878,730,4,13,8217
1358141804,5808,974.4899902343750000,50.9802818298339840,672.5797729492188000,4.2129402160644530,53.5666503906250000,52,100,86,80,80,15065,2147757805,2147421540,2148011721,2147875803,2147643757,2147055442,2148259117,2147196681,377,4,13,9462
1358145404,5811,989.5200195312500000,50.7415390014648440,673.5484008789062000,4.1809101104736330,53.6133689880371100,53,99,86,78,81,15062,2147759552,2147421723,2148010770,2147876397,2147640557,2147061202,2148257801,2147199771,196,4,13,3713
1358149004,5812,992.2999877929688000,50.5603713989257800,673.3270874023438000,4.1882271766662600,53.6327285766601560,53,98,85,78,80,15063,2147760182,2147421174,2148009380,2147876278,2147642797,2147053147,2148254317,2147199268,393,4,13,9590
1358152604,5807,999.7000122070312000,50.4956398010253900,672.5551147460938000,4.2137551307678220,53.6371002197265600,53,98,87,79,80,15063,2147757458,2147425691,2148011282,2147875894,2147641846,2147056630,2148258340,2147199789,331,4,13,3598
1358156204,5811,993.7000122070312000,50.3292884826660160,672.5496826171875000,4.2139358520507810,53.6574592590332000,53,109,89,80,81,15062,2147758473,2147420141,2148009490,2147877366,2147642852,2147056018,2148259602,2147194852,3457,4,13,18194
1358159804,5809,994.9899902343750000,50.3295593261718750,673.5802001953125000,4.1798567771911620,53.6669807434082000,52,98,85,78,82,15061,2147758272,2147424649,2148013110,2147874880,2147641216,2147057106,2148254710,2147194770,106,4,13,49372
1358163404,5808,990.9099731445312000,50.1659202575683600,673.6749877929688000,4.1767220497131350,53.6929588317871100,52,98,89,80,81,15062,2147758134,2147425947,2148011958,2147874514,2147639469,2147054070,2148262381,2147198144,206,4,13,51513
1358167004,5809,994.2500000000000000,50.6283302307128900,674.4716186523438000,4.1503701210021970,53.6402702331543000,53,98,84,79,81,15059,2147758802,2147422116,2148011638,2147876909,2147646244,2147050861,2148260909,2147197686,3363,4,13,55475
1358170604,5810,996.1400146484375000,50.0744400024414060,673.2191772460938000,4.1917967796325680,53.7005691528320300,53,98,87,79,80,15057,2147756653,2147424457,2148011730,2147877750,2147642459,2147062866,2148257225,2147197403,285,4,13,1071
1358174204,5809,998.7399902343750000,50.0008392333984400,673.4166259765625000,4.1852660179138180,53.7162094116210940,53,97,87,80,80,15057,2147757065,2147423387,2148012032,2147873005,2147636900,2147060416,2148256822,2147195922,40,4,13,52194
1358177804,5808,999.4000244140625000,49.7092781066894500,673.3206176757812000,4.1884422302246090,53.7543792724609400,53,98,88,77,81,15059,2147756736,2147423140,2148012854,2147875629,2147644653,2147059117,2148264036,2147194779,408,4,13,64984
1358181404,5811,1000.0700073242188000,49.5573081970214840,673.3386230468750000,4.1878471374511720,53.7706489562988300,52,99,88,79,80,15059,2147759250,2147426112,2148013568,2147872475,2147644507,2147059995,2148256914,2147202358,292,4,13,5607
1358185004,5812,1000.9799804687500000,49.8511810302734400,674.2940063476562000,4.1562461853027340,53.7475700378418000,52,98,83,78,81,15057,2147759680,2147422902,2148005979,2147871689,2147639936,2147053833,2148266130,2147196635,144,4,13,35523
1358188604,5809,997.5399780273438000,50.3259315490722660,675.4666748046875000,4.1174430847167970,53.6908493041992200,53,98,84,78,81,15059,2147756745,2147424557,2148011181,2147873664,2147641572,2147054610,2148260653,2147197165,3564,4,13,20988
1358192204,5813,997.8699951171875000,50.3960609436035160,674.8035278320312000,4.1393871307373050,53.6782188415527340,53,99,86,79,81,15058,2147760475,2147423259,2148012580,2147872905,2147647789,2147056466,2148259346,2147198061,3562,4,13,32755
1358195804,5811,994.8499755859375000,50.3613281250000000,675.7570800781250000,4.1078300476074220,53.6945190429687500,52,97,87,78,81,15057,2147759222,2147427035,2148010432,2147874642,2147644361,2147058486,2148262500,2147197193,270,4,13,29299
1358199404,5809,988.0999755859375000,50.9854011535644500,676.2174072265625000,4.0925941467285160,53.6113204956054700,53,98,87,80,80,15058,2147758573,2147423140,2148012288,2147874587,2147644699,2147054966,2148258349,2147194761,290,4,13,32510
1358203004,5811,983.0800170898438000,51.9815597534179700,677.9650878906250000,4.0347189903259280,53.5022506713867200,53,98,91,79,81,15055,2147759305,2147420928,2148010806,2147876598,2147646784,2147055213,2148260489,2147195794,3354,4,13,51535
1358206604,5810,982.1500244140625000,52.2247695922851560,678.3657836914062000,4.0214462280273440,53.4733314514160160,53,108,84,78,81,15054,2147759140,2147421897,2148009846,2147875428,2147643977,2147057545,2148265270,2147195666,61,4,13,56103
1358210204,5805,1003.2899780273438000,51.7209205627441400,676.0447998046875000,4.0983071327209470,53.5098304748535160,52,100,85,76,81,15052,2147760384,2147422025,2148011986,2147876470,2147643465,2147058340,2148262692,2147198829,194,4,13,4671
1358213804,5809,1003.7500000000000000,51.0193710327148440,675.4680786132812000,4.1173968315124510,53.6011390686035160,52,98,86,79,81,15054,2147761545,2147425718,2148011437,2147875620,2147641508,2147059904,2148255296,2147197842,442,4,13,56905
1358217404,5809,996.7899780273438000,50.3938598632812500,675.8195190429688000,4.1057658195495605,53.6893081665039060,53,98,88,80,81,15054,2147761654,2147419821,2148009024,2147877878,2147641408,2147059108,2148258925,2147199158,423,4,13,16287
1358221004,5810,995.7199707031250000,51.3184700012207000,675.9716186523438000,4.1007308959960940,53.5678787231445300,52,98,87,80,81,15049,2147758372,2147425161,2148010541,2147873691,2147646445,2147055780,2148256740,2147198619,71,4,13,64569
1358224604,5806,997.7399902343750000,51.1503906250000000,675.9990844726562000,4.0998167991638180,53.5913009643554700,51,98,88,79,81,15054,2147761344,2147425709,2148009572,2147874578,2147643483,2147057773,2148258459,2147199003,455,4,13,12046
1358228204,5811,1002.5300292968750000,50.9657592773437500,675.5230712890625000,4.1155738830566410,53.6102600097656250,53,98,88,77,81,15054,2147758409,2147425097,2148010203,2147877037,2147640356,2147056137,2148255003,2147198336,330,4,13,24955
1358231804,5811,1002.9299926757812000,50.9454002380371100,675.9697265625000000,4.1007962226867680,53.6147613525390600,52,97,86,79,81,15054,2147758528,2147423296,2148009234,2147875821,2147645686,2147061961,2148263094,2147196534,3487,4,13,36427
1358235404,5806,1001.3200073242188000,51.2477798461914060,676.2258300781250000,4.0923137664794920,53.5777015686035160,52,98,91,81,80,15052,2147757330,2147423844,2148010624,2147876507,2147642185,2147060260,2148256978,2147197238,3511,4,13,39925
1358239004,5810,1009.7600097656250000,51.2399291992187500,675.2763061523438000,4.1237430572509770,53.5658798217773440,52,100,90,79,81,15053,2147757366,2147422866,2148010889,2147877650,2147641380,2147061284,2148259803,2147201700,2881,4,13,35200
1358242604,5809,1009.3800048828125000,50.5284996032714840,674.9448242187500000,4.1347141265869140,53.6571311950683600,52,98,88,78,80,15051,2147755501,2147425270,2148010322,2147876242,2147645065,2147059538,2148260406,2147196589,522,4,13,34098
1358246204,5808,997.7800292968750000,50.5164909362793000,675.6510009765625000,4.1113409996032715,53.6683006286621100,52,99,85,79,82,15039,2147758189,2147426212,2148009874,2147872960,2147641846,2147056155,2148263350,2147201508,360,4,13,5995
1358249804,5810,1001.7899780273438000,51.2202301025390600,675.6287841796875000,4.1120781898498535,53.5752906799316400,53,98,91,79,80,15039,2147758555,2147423040,2148012306,2147874340,2147642770,2147060260,2148262390,2147196589,405,4,13,5369
1358253404,5808,1014.7199707031250000,50.4741401672363300,674.4130249023438000,4.1523089408874510,53.6632881164550800,53,105,87,78,81,15041,2147757366,2147426057,2148010249,2147876461,2147641243,2147054372,2148258614,2147196754,173,4,13,33053
1358257004,5806,1012.2399902343750000,49.8183898925781250,673.6735229492188000,4.1767711639404300,53.7399711608886700,52,97,87,79,81,15040,2147759451,2147423835,2148009709,2147875465,2147641709,2147059072,2148260809,2147197568,3353,4,13,59934
1358260604,5809,1015.1199951171875000,49.7855300903320300,673.3676147460938000,4.1868901252746580,53.7394599914550800,52,99,86,77,81,15040,2147760886,2147425746,2148012050,2147876873,2147639058,2147061312,2148258880,2147195812,3584,4,13,32356
1358264204,5809,1019.7199707031250000,49.9527282714843750,672.3275756835938000,4.2212748527526855,53.7023200988769500,52,98,87,79,81,15038,2147757046,2147425609,2148009974,2147872649,2147640850,2147059629,2148260854,2147199085,572,4,13,63915
1358267804,5807,1017.7800292968750000,49.8160781860351560,673.1480712890625000,4.1941490173339840,53.7341194152832000,52,99,85,80,81,15041,2147756324,2147425152,2148010953,2147872502,2147641179,2147064100,2148260233,2147196096,86,4,13,51531
1358271404,5808,1012.0900268554688000,49.9043884277343750,673.2764282226562000,4.1899051666259770,53.7234992980957000,52,100,84,78,80,15038,2147760512,2147426331,2148008457,2147873700,2147638537,2147058313,2148261760,2147199945,333,4,13,62369
1358275004,5807,1007.2100219726562000,49.7953491210937500,673.5579833984375000,4.1805901527404785,53.7445106506347660,52,100,86,79,79,15039,2147757019,2147424228,2148013174,2147876571,2147641115,2147056128,2148258038,2147199049,2699,4,14,26915
1358278604,5810,1012.2100219726562000,50.0140113830566400,674.4832763671875000,4.1499810218811035,53.7232017517089840,52,99,87,79,82,15037,2147758610,2147425901,2148010907,2147873938,2147639588,2147063204,2148258112,2147198729,385,4,13,47651
1358280056,5809,1005.3599853515625000,49.7944183349609400,674.5291748046875000,4.1484642028808590,53.7572402954101560,53,98,88,78,79,15054,2147756525,2147429330,2148011035,2147875949,2147639670,2147051520,2148257005,2147198637,2984,4,13,43789
